South Lake Tahoe, CA

4:37 AM PDT on March 27, 2017 (GMT -0700)
Lake Tahoe

Weather History for KTVL - April, 2013

Change the Weather History Date:

Saturday, April 6, 2013

  Actual Average Record
Temperature  
Mean Temperature 45 °F 38 °F  
Max Temperature 52 °F 52 °F 68 °F (1988)
Min Temperature 38 °F 25 °F -1 °F (1975)
Degree Days  
Heating Degree Days 20 27  
Month to date heating degree days 130 162  
Since 1 July heating degree days 5912 6314  
Cooling Degree Days 0 0  
Month to date cooling degree days 0 0  
Year to date cooling degree days 0 0  
Moisture  
Dew Point 27 °F    
Average Humidity 50    
Maximum Humidity 62    
Minimum Humidity 38    
Precipitation  
Precipitation T in - 1.47 in (1963)
Month to date precipitation 0.19  
Year to date precipitation 2.43  
Sea Level Pressure  
Sea Level Pressure 30.08 in    
Wind  
Wind Speed 6 mph (SSW)    
Max Wind Speed 20 mph    
Max Gust Speed 29 mph    
Visibility 10 miles    
Events      
T = Trace of Precipitation, MM = Missing Value Source: NWS Daily Summary

Daily Weather History Graph

Daily Weather History Graph

Search for Another Location

Airport or City:

Trip Planner

Search our weather history database for the weather conditions in past years. The results will help you decide how hot, cold, wet, or windy it might be!

Date:

Astronomy

Apr. 06, 2013 Rise Set
Actual Time 6:36 AM PDT 7:28 PM PDT
Civil Twilight 6:09 AM PDT 7:55 PM PDT
Nautical Twilight 5:37 AM PDT 8:28 PM PDT
Astronomical Twilight 5:04 AM PDT 9:01 PM PDT
Moon 4:21 AM PDT (4/6) 4:04 PM PDT (4/6)
Length of Visible Light 13h 46m
Length of Day
12h 52m
Waning Crescent, 14% of the Moon is Illuminated
Apr 6
Waning Crescent
Apr 10
New
Apr 18
First Quarter
Apr 25
Full
May 2
Last Quarter

Hourly Weather History & Observations

Time (PDT) Temp. Windchill Dew Point Humidity Pressure Visibility Wind Dir Wind Speed Gust Speed Precip Events Conditions
12:53 AM 41.0 °F - 23.0 °F 49% 30.08 in 10.0 mi Calm Calm - N/A   Overcast
1:53 AM 42.1 °F - 21.0 °F 43% 30.07 in 10.0 mi Calm Calm - N/A   Overcast
2:53 AM 39.0 °F - 21.9 °F 50% 30.07 in 10.0 mi Calm Calm - N/A   Overcast
3:53 AM 39.9 °F 37.8 °F 21.0 °F 47% 30.06 in 10.0 mi Variable 3.5 mph - N/A   Overcast
4:53 AM 39.9 °F - 21.9 °F 49% 30.06 in 10.0 mi Calm Calm - N/A   Overcast
5:53 AM 41.0 °F 35.8 °F 19.0 °F 41% 30.05 in 10.0 mi South 8.1 mph - N/A   Overcast
6:53 AM 37.9 °F - 25.0 °F 60% 30.09 in 10.0 mi Calm Calm - N/A   Overcast
7:53 AM 39.9 °F 34.5 °F 24.1 °F 53% 30.11 in 10.0 mi South 8.1 mph - N/A   Overcast
8:53 AM 41.0 °F 34.3 °F 27.0 °F 57% 30.11 in 10.0 mi South 11.5 mph - N/A   Overcast
9:53 AM 44.1 °F 37.7 °F 27.0 °F 51% 30.11 in 10.0 mi South 12.7 mph - N/A   Overcast
10:53 AM 48.0 °F - 28.9 °F 48% 30.09 in 10.0 mi South 13.8 mph - N/A   Mostly Cloudy
11:53 AM 50.0 °F - 30.9 °F 48% 30.09 in 10.0 mi South 17.3 mph 20.7 mph N/A   Mostly Cloudy
12:53 PM 52.0 °F - 32.0 °F 47% 30.08 in 10.0 mi South 16.1 mph 24.2 mph N/A   Mostly Cloudy
1:53 PM 52.0 °F - 28.9 °F 41% 30.06 in 10.0 mi South 17.3 mph 21.9 mph 0.00 in   Scattered Clouds
2:53 PM 52.0 °F - 26.1 °F 37% 30.06 in 10.0 mi SSW 9.2 mph 19.6 mph N/A   Clear
3:53 PM 51.1 °F - 27.0 °F 39% 30.05 in 10.0 mi SSW 13.8 mph 26.5 mph N/A   Clear
4:53 PM 48.9 °F - 28.9 °F 46% 30.06 in 10.0 mi SSW 9.2 mph 23.0 mph N/A   Overcast
5:53 PM 48.0 °F - 28.9 °F 48% 30.06 in 10.0 mi SSW 5.8 mph - N/A   Mostly Cloudy
6:53 PM 46.0 °F 41.9 °F 30.0 °F 54% 30.07 in 10.0 mi SSW 8.1 mph - N/A   Mostly Cloudy
7:53 PM 44.1 °F 39.0 °F 32.0 °F 63% 30.07 in 10.0 mi South 9.2 mph - N/A   Partly Cloudy
8:53 PM 42.1 °F 38.4 °F 30.0 °F 62% 30.09 in 10.0 mi SW 5.8 mph - N/A   Clear
9:53 PM 43.0 °F 36.0 °F 28.9 °F 58% 30.10 in 10.0 mi South 13.8 mph 18.4 mph N/A   Mostly Cloudy
10:53 PM 42.1 °F 36.1 °F 30.0 °F 62% 30.06 in 10.0 mi SW 10.4 mph 17.3 mph N/A   Clear
11:53 PM 42.1 °F 36.6 °F 28.9 °F 60% 30.06 in 10.0 mi SSW 9.2 mph - N/A   Mostly Cloudy